• In Portugal
  • List of Countries
  • For 7 days
  • Water Temperature
  • Satellite Maps
  • Weather Map
  • Weather Widgets
  • user-avatar
    Login

    Hourly Weather Sucre

    Today, 23 September, Sunday

    Time Temperature Precipitation Wind Pressure Humidity
    00:00 +17°C° 0 mm 2 mps 541 mmHg 55%
    01:00 +16°C° 0 mm 2 mps 540 mmHg 58%
    02:00 +16°C° 0 mm 2 mps 540 mmHg 61%
    03:00 +16°C° 0 mm 2 mps 539 mmHg 64%
    04:00 +15°C° 0 mm 1 mps 539 mmHg 66%
    05:00 +15°C° 0 mm 1 mps 539 mmHg 69%
    06:00 +15°C° 0 mm 1 mps 539 mmHg 66%
    07:00 +16°C° 0 mm 2 mps 540 mmHg 62%
    08:00 +16°C° 0 mm 2 mps 540 mmHg 58%
    09:00 +18°C° 0 mm 2 mps 541 mmHg 49%
    10:00 +20°C° 0 mm 2 mps 542 mmHg 41%
    11:00 +22°C° 0 mm 3 mps 543 mmHg 32%
    12:00 +24°C° 0 mm 3 mps 543 mmHg 29%
    13:00 +25°C° 0 mm 4 mps 543 mmHg 26%
    14:00 +26°C° 0 mm 4 mps 542 mmHg 23%
    15:00 +24°C° 0 mm 6 mps 542 mmHg 25%
    16:00 +24°C° 0 mm 7 mps 541 mmHg 27%
    17:00 +23°C° 0 mm 9 mps 541 mmHg 28%
    18:00 +21°C° 0.5 mm 7 mps 541 mmHg 35%
    19:00 +20°C° 0.5 mm 5 mps 541 mmHg 41%
    20:00 +18°C° 0.5 mm 3 mps 541 mmHg 48%
    21:00 +18°C° 0 mm 2 mps 541 mmHg 50%
    22:00 +18°C° 0 mm 2 mps 541 mmHg 51%
    23:00 +17°C° 0 mm 2 mps 542 mmHg 53%

    Tomorrow, 24 September, Monday

    Time Temperature Precipitation Wind Pressure Humidity
    00:00 +18°C° 0.5 mm 1 mps 541 mmHg 57%
    01:00 +16°C° 0.5 mm 1 mps 541 mmHg 60%
    02:00 +15°C° 0.5 mm 1 mps 540 mmHg 64%
    03:00 +15°C° 0.2 mm 1 mps 540 mmHg 66%
    04:00 +15°C° 0.2 mm 1 mps 540 mmHg 68%
    05:00 +14°C° 0.2 mm 1 mps 539 mmHg 70%
    06:00 +15°C° 0.1 mm 1 mps 540 mmHg 67%
    07:00 +15°C° 0.1 mm 2 mps 541 mmHg 63%
    08:00 +16°C° 0.1 mm 2 mps 541 mmHg 60%
    09:00 +17°C° 0.2 mm 2 mps 542 mmHg 53%
    10:00 +19°C° 0.2 mm 3 mps 543 mmHg 46%
    11:00 +20°C° 0.2 mm 3 mps 543 mmHg 39%
    12:00 +21°C° 0 mm 4 mps 543 mmHg 37%
    13:00 +21°C° 0 mm 5 mps 543 mmHg 35%
    14:00 +22°C° 0 mm 6 mps 542 mmHg 33%
    15:00 +21°C° 0.4 mm 6 mps 542 mmHg 36%
    16:00 +20°C° 0.4 mm 6 mps 541 mmHg 40%
    17:00 +20°C° 0.4 mm 6 mps 541 mmHg 43%
    18:00 +19°C° 1.2 mm 5 mps 541 mmHg 46%
    19:00 +18°C° 1.2 mm 3 mps 541 mmHg 50%
    20:00 +17°C° 1.2 mm 2 mps 541 mmHg 54%
    21:00 +16°C° 0.5 mm 2 mps 541 mmHg 58%
    22:00 +16°C° 0.5 mm 2 mps 541 mmHg 61%
    23:00 +15°C° 0.5 mm 1 mps 541 mmHg 65%

    Day after tomorrow, 25 September, Tuesday

    Time Temperature Precipitation Wind Pressure Humidity
    00:00 +15°C° 0.5 mm 1 mps 540 mmHg 67%
    01:00 +14°C° 0.5 mm 1 mps 539 mmHg 68%
    02:00 +14°C° 0.5 mm 1 mps 539 mmHg 70%
    03:00 +14°C° 0 mm 1 mps 539 mmHg 72%
    04:00 +13°C° 0 mm 1 mps 539 mmHg 73%
    05:00 +13°C° 0 mm 1 mps 538 mmHg 75%
    06:00 +14°C° 0 mm 1 mps 539 mmHg 68%
    07:00 +15°C° 0 mm 2 mps 540 mmHg 62%
    08:00 +16°C° 0 mm 2 mps 541 mmHg 56%
    09:00 +18°C° 0 mm 2 mps 542 mmHg 47%
    10:00 +19°C° 0 mm 3 mps 542 mmHg 38%
    11:00 +21°C° 0 mm 3 mps 543 mmHg 29%
    12:00 +22°C° 0 mm 3 mps 543 mmHg 26%
    13:00 +24°C° 0 mm 3 mps 543 mmHg 23%
    14:00 +25°C° 0 mm 3 mps 543 mmHg 20%
    15:00 +25°C° 0 mm 4 mps 542 mmHg 22%
    16:00 +23°C° 0 mm 5 mps 541 mmHg 24%
    17:00 +23°C° 0 mm 6 mps 541 mmHg 26%
    18:00 +21°C° 0.1 mm 5 mps 541 mmHg 33%
    19:00 +19°C° 0.1 mm 4 mps 541 mmHg 41%
    20:00 +18°C° 0.1 mm 3 mps 540 mmHg 49%
    21:00 +17°C° 0.1 mm 2 mps 540 mmHg 52%
    22:00 +17°C° 0.1 mm 2 mps 541 mmHg 56%
    23:00 +16°C° 0.1 mm 1 mps 541 mmHg 59%

    26 September, Wednesday

    Time Temperature Precipitation Wind Pressure Humidity
    00:00 +16°C° 0 mm 1 mps 540 mmHg 62%
    01:00 +15°C° 0 mm 1 mps 540 mmHg 64%
    02:00 +15°C° 0 mm 1 mps 539 mmHg 67%
    03:00 +14°C° 0 mm 1 mps 539 mmHg 68%
    04:00 +14°C° 0 mm 1 mps 539 mmHg 70%
    05:00 +13°C° 0 mm 1 mps 539 mmHg 72%
    06:00 +14°C° 0 mm 1 mps 539 mmHg 67%
    07:00 +15°C° 0 mm 1 mps 540 mmHg 62%
    08:00 +16°C° 0 mm 1 mps 541 mmHg 57%
    09:00 +17°C° 0 mm 2 mps 542 mmHg 48%
    10:00 +19°C° 0 mm 2 mps 543 mmHg 40%
    11:00 +21°C° 0 mm 3 mps 543 mmHg 31%
    12:00 +22°C° 0 mm 3 mps 543 mmHg 28%
    13:00 +23°C° 0 mm 4 mps 543 mmHg 25%
    14:00 +23°C° 0 mm 4 mps 543 mmHg 22%
    15:00 +23°C° 0 mm 6 mps 542 mmHg 26%
    16:00 +22°C° 0 mm 7 mps 541 mmHg 29%
    17:00 +22°C° 0 mm 9 mps 541 mmHg 33%
    18:00 +20°C° 1.8 mm 7 mps 541 mmHg 43%
    19:00 +17°C° 1.8 mm 5 mps 540 mmHg 53%
    20:00 +16°C° 1.8 mm 3 mps 540 mmHg 63%
    21:00 +16°C° 0.5 mm 3 mps 540 mmHg 65%
    22:00 +15°C° 0.5 mm 2 mps 540 mmHg 66%
    23:00 +15°C° 0.5 mm 2 mps 541 mmHg 68%

    27 September, Thursday

    Time Temperature Precipitation Wind Pressure Humidity
    00:00 +15°C° 0 mm 2 mps 540 mmHg 69%
    01:00 +15°C° 0 mm 1 mps 540 mmHg 70%
    02:00 +14°C° 0 mm 1 mps 539 mmHg 72%
    03:00 +14°C° 0 mm 1 mps 539 mmHg 73%
    04:00 +14°C° 0 mm 1 mps 539 mmHg 75%
    05:00 +13°C° 0 mm 1 mps 539 mmHg 76%
    06:00 +14°C° 0 mm 1 mps 540 mmHg 71%
    07:00 +15°C° 0 mm 1 mps 540 mmHg 65%
    08:00 +16°C° 0 mm 2 mps 541 mmHg 60%
    09:00 +17°C° 0 mm 2 mps 542 mmHg 50%
    10:00 +19°C° 0 mm 2 mps 542 mmHg 40%
    11:00 +21°C° 0 mm 2 mps 543 mmHg 30%
    12:00 +22°C° 0 mm 3 mps 543 mmHg 28%
    13:00 +24°C° 0 mm 3 mps 543 mmHg 25%
    14:00 +25°C° 0 mm 3 mps 542 mmHg 23%
    15:00 +23°C° 0 mm 5 mps 542 mmHg 26%
    16:00 +23°C° 0 mm 6 mps 542 mmHg 29%
    17:00 +22°C° 0 mm 8 mps 541 mmHg 32%
    18:00 +21°C° 1.2 mm 6 mps 541 mmHg 41%
    19:00 +19°C° 1.2 mm 5 mps 541 mmHg 50%
    20:00 +17°C° 1.2 mm 3 mps 541 mmHg 58%
    21:00 +17°C° 0.6 mm 2 mps 541 mmHg 60%
    22:00 +17°C° 0.6 mm 2 mps 541 mmHg 61%
    23:00 +16°C° 0.6 mm 1 mps 541 mmHg 63%

    28 September, Friday

    Time Temperature Precipitation Wind Pressure Humidity
    00:00 +16°C° 0 mm 1 mps 541 mmHg 65%
    01:00 +15°C° 0 mm 1 mps 540 mmHg 68%
    02:00 +15°C° 0 mm 1 mps 539 mmHg 70%
    03:00 +15°C° 0 mm 1 mps 539 mmHg 71%
    04:00 +14°C° 0 mm 1 mps 539 mmHg 72%
    05:00 +14°C° 0 mm 1 mps 539 mmHg 73%
    06:00 +15°C° 0 mm 1 mps 540 mmHg 66%
    07:00 +16°C° 0 mm 2 mps 540 mmHg 60%
    08:00 +17°C° 0 mm 2 mps 541 mmHg 53%
    09:00 +18°C° 0 mm 2 mps 542 mmHg 45%
    10:00 +20°C° 0 mm 3 mps 542 mmHg 37%
    11:00 +22°C° 0 mm 4 mps 543 mmHg 29%
    12:00 +23°C° 0 mm 4 mps 543 mmHg 27%
    13:00 +25°C° 0 mm 4 mps 542 mmHg 24%
    14:00 +26°C° 0 mm 4 mps 542 mmHg 21%
    15:00 +26°C° 0 mm 5 mps 542 mmHg 23%
    16:00 +24°C° 0 mm 7 mps 541 mmHg 25%
    17:00 +24°C° 0 mm 8 mps 541 mmHg 27%
    18:00 +22°C° 0.1 mm 6 mps 541 mmHg 34%
    19:00 +21°C° 0.1 mm 4 mps 540 mmHg 41%
    20:00 +19°C° 0.1 mm 3 mps 540 mmHg 48%
    21:00 +18°C° 0 mm 3 mps 540 mmHg 51%
    22:00 +18°C° 0 mm 2 mps 540 mmHg 54%
    23:00 +17°C° 0 mm 2 mps 540 mmHg 58%
    Show more